Simultaneous Nadir Overpasses (SNOs) Predictions

Prediction of SNOs between AQUA and NOAA-19 Satellite Orbit:

Table of predicted SNOs for the next 14.0 days since TLE Epoch: 6/10/2023
Index Date (AQUA) Time (AQUA) Lat,Lon (AQUA) SZA (AQUA ) Date (NOAA-19) Time (NOAA-19) Lat,Lon (NOAA-19) SZA (NOAA-19 ) Distance(km) Time Diff (sec)
1 06/10/2023 22:24:54 -76.45, 14.19 126.47 06/10/2023 22:24:11 -76.46, 14.10 126.45 2.43 43
2 06/10/2023 23:14:21 76.52,-178.41 53.61 06/10/2023 23:15:10 76.52,-178.37 53.61 1.16 49
3 06/13/2023 03:06:58 -76.19, -55.47 126.90 06/13/2023 03:05:49 -76.11, -57.55 126.87 56.19 69
4 06/13/2023 03:56:30 76.50, 111.14 53.45 06/13/2023 03:56:41 76.50, 111.23 53.45 2.39 11
5 06/15/2023 08:38:38 76.46, 40.75 53.30 06/15/2023 08:38:12 76.47, 40.80 53.32 1.83 26
6 06/15/2023 09:28:03 -76.53,-151.82 126.63 06/15/2023 09:29:09 -76.50,-151.85 126.67 3.54 66
7 06/17/2023 13:20:46 76.46, -29.74 53.22 06/17/2023 13:19:43 76.44, -29.65 53.21 3.16 63
8 06/17/2023 14:10:10 -76.47, 137.86 126.77 06/17/2023 14:10:39 -76.48, 137.80 126.75 2.34 29
9 06/19/2023 18:52:17 -76.44, 67.45 126.84 06/19/2023 18:52:09 -76.47, 67.42 126.81 2.89 8
10 06/21/2023 23:34:24 -76.44, -3.06 126.84 06/21/2023 23:33:39 -76.45, -2.97 126.84 2.26 45



Historial Predications of SNOs between AQUA and NOAA-19
